This is the latest recevied weather packets stored in our database for station/object KD4VIF. If no packets are shown the sender has not sent any weather packets the latest 10 day(s).
| Time | Temp. | Humidity | Pressure | Rain* | Wind** | Luminosity | Snow |
|---|---|---|---|---|---|---|---|
| 1778164065 | 19.44° C | 100% | 1009 hPa | 0.51 mm | 0 m/s | - | - |
| 1778163765 | 19.44° C | 100% | 1008.9 hPa | 3.05 mm | 0 m/s | - | - |
| 1778163167 | 19.44° C | 100% | 1009.1 hPa | 3.56 mm | 0 m/s | - | - |
| 1778162864 | 19.44° C | 100% | 1009 hPa | 3.56 mm | 0 m/s | - | - |
| 1778162567 | 19.44° C | 100% | 1009.1 hPa | 3.56 mm | 0 m/s | - | - |
| 1778162264 | 19.44° C | 100% | 1009.2 hPa | 3.56 mm | 0 m/s | - | - |
| 1778162204 | 19.44° C | 100% | 1009 hPa | 3.05 mm | 0 m/s | - | - |
| 1778161906 | 19.44° C | 100% | 1009.1 hPa | 3.05 mm | 0 m/s | - | - |
| 1778161604 | 19.44° C | 100% | 1009.1 hPa | 3.05 mm | 0 m/s | - | - |
| 1778161306 | 19.44° C | 100% | 1009 hPa | 4.57 mm | 0 m/s | - | - |
| 1778161246 | 19.44° C | 100% | 1009.1 hPa | 4.06 mm | 0.89 m/s, 302° | - | - |
| 1778160945 | 19.44° C | 100% | 1009.1 hPa | 4.06 mm | 0 m/s | - | - |
| 1778160646 | 19.44° C | 100% | 1009.2 hPa | 3.56 mm | 0 m/s | - | - |
| 1778160225 | 19.44° C | 100% | 1009.2 hPa | 0.51 mm | 0 m/s | - | - |
| 1778159926 | 19.44° C | 100% | 1008.9 hPa | 0 mm | 0 m/s | - | - |
| 1778159625 | 19.44° C | 100% | 1008.9 hPa | 0 mm | 0 m/s | - | - |
| 1778159025 | 19.44° C | 100% | 1008.9 hPa | 0 mm | 0 m/s | - | - |
| 1778158724 | 19.44° C | 100% | 1008.6 hPa | 0 mm | 0 m/s | - | - |
| 1778158425 | 19.44° C | 100% | 1008.7 hPa | 0 mm | 0 m/s | - | - |
| 1778158125 | 19.44° C | 100% | 1008.6 hPa | 0 mm | 0 m/s | - | - |
| 1778157825 | 19.44° C | 100% | 1008.5 hPa | 0 mm | 0 m/s | - | - |
| 1778157225 | 19.44° C | 100% | 1008.6 hPa | 0 mm | 0 m/s | - | - |
| 1778156925 | 19.44° C | 100% | 1008.5 hPa | 0 mm | 0 m/s | - | - |
| 1778156624 | 19.44° C | 100% | 1008.7 hPa | 0.51 mm | 0 m/s | - | - |
| 1778156325 | 19.44° C | 100% | 1008.7 hPa | 0.51 mm | 0 m/s | - | - |
* Rain latest hour (hover to see other rain measurements)
** Current wind speed in m/s (hover to see current wind gust speed)